TimeEDT,TemperatureF,Dew PointF,Humidity,Sea Level PressureIn,VisibilityMPH,Wind Direction,Wind SpeedMPH,Gust SpeedMPH,PrecipitationIn,Events,Conditions,WindDirDegrees,DateUTC
12:16 AM,64.4,62.6,94,29.72,10.0,NNE,6.9,-,N/A,,Overcast,20,2013-06-30 04:16:00
12:54 AM,66.0,63.0,90,29.71,8.0,NNE,6.9,-,N/A,,Overcast,30,2013-06-30 04:54:00
1:21 AM,66.2,64.4,94,29.73,7.0,NE,12.7,-,N/A,,Overcast,40,2013-06-30 05:21:00
1:34 AM,66.2,62.6,88,29.73,9.0,NE,11.5,-,N/A,,Overcast,40,2013-06-30 05:34:00
1:54 AM,66.0,63.0,90,29.72,10.0,NE,10.4,-,N/A,,Overcast,50,2013-06-30 05:54:00
2:31 AM,64.4,62.6,94,29.73,10.0,NE,12.7,-,0.03,Rain,Light Rain,50,2013-06-30 06:31:00
2:47 AM,64.4,62.6,94,29.74,8.0,NE,9.2,-,0.03,Rain,Light Rain,40,2013-06-30 06:47:00
2:54 AM,64.0,62.1,93,29.73,7.0,NE,10.4,-,0.04,Rain,Light Rain,40,2013-06-30 06:54:00
3:54 AM,64.0,61.0,90,29.73,10.0,NNE,8.1,-,0.01,,Overcast,30,2013-06-30 07:54:00
4:54 AM,63.0,59.0,87,29.74,10.0,NE,9.2,-,0.00,Rain,Light Rain,50,2013-06-30 08:54:00
5:54 AM,63.0,60.1,90,29.75,10.0,NNE,9.2,-,0.01,Rain,Light Rain,30,2013-06-30 09:54:00
6:03 AM,62.6,60.8,94,29.75,7.0,NNE,11.5,-,0.00,Rain,Light Rain,30,2013-06-30 10:03:00
6:20 AM,62.6,60.8,94,29.76,6.0,NNE,12.7,19.6,0.01,Rain,Light Rain,30,2013-06-30 10:20:00
6:41 AM,62.6,60.8,94,29.76,7.0,NNE,11.5,-,0.02,Rain,Light Rain,30,2013-06-30 10:41:00
6:54 AM,63.0,61.0,93,29.76,6.0,NNE,10.4,-,0.02,Rain,Light Rain,30,2013-06-30 10:54:00
7:26 AM,62.6,60.8,94,29.78,2.0,NE,10.4,-,0.00,Rain,Light Rain,40,2013-06-30 11:26:00
7:34 AM,62.6,60.8,94,29.78,6.0,NE,10.4,-,0.00,Rain,Light Rain,40,2013-06-30 11:34:00
7:54 AM,63.0,61.0,93,29.78,4.0,NE,11.5,-,0.05,Rain,Heavy Rain,40,2013-06-30 11:54:00
8:54 AM,63.0,61.0,93,29.79,3.0,NE,5.8,-,0.19,Rain,Heavy Rain,50,2013-06-30 12:54:00
9:54 AM,63.0,62.1,97,29.81,3.0,Calm,Calm,-,0.24,Rain,Rain,0,2013-06-30 13:54:00
10:54 AM,64.0,62.1,93,29.83,5.0,ENE,8.1,-,0.06,Rain,Light Rain,60,2013-06-30 14:54:00
11:54 AM,66.0,63.0,90,29.84,5.0,NE,8.1,-,0.08,Rain,Light Rain,50,2013-06-30 15:54:00
12:41 PM,68.0,64.4,88,29.85,6.0,ENE,12.7,18.4,0.01,Rain,Light Rain,70,2013-06-30 16:41:00
12:54 PM,69.1,64.0,84,29.84,6.0,ENE,15.0,-,0.01,Rain,Light Rain,70,2013-06-30 16:54:00
1:39 PM,68.0,60.8,78,29.85,10.0,NE,16.1,23.0,0.00,,Overcast,40,2013-06-30 17:39:00
1:54 PM,66.9,60.1,79,29.85,10.0,NE,15.0,24.2,0.00,,Mostly Cloudy,50,2013-06-30 17:54:00
2:54 PM,68.0,60.1,76,29.85,10.0,NE,15.0,-,N/A,,Overcast,50,2013-06-30 18:54:00
3:54 PM,69.1,60.1,73,29.85,10.0,NNE,10.4,-,N/A,,Mostly Cloudy,30,2013-06-30 19:54:00
4:54 PM,69.1,61.0,75,29.86,10.0,NNE,8.1,-,N/A,,Mostly Cloudy,30,2013-06-30 20:54:00
5:54 PM,72.0,61.0,68,29.86,10.0,NE,11.5,-,N/A,,Mostly Cloudy,50,2013-06-30 21:54:00
6:54 PM,72.0,61.0,68,29.85,10.0,NE,11.5,-,N/A,,Mostly Cloudy,40,2013-06-30 22:54:00
7:54 PM,72.0,61.0,68,29.87,10.0,NE,9.2,-,N/A,,Mostly Cloudy,50,2013-06-30 23:54:00
8:54 PM,69.1,62.1,78,29.89,10.0,East,5.8,-,N/A,,Mostly Cloudy,80,2013-07-01 00:54:00
9:54 PM,68.0,61.0,78,29.90,10.0,East,5.8,-,N/A,,Mostly Cloudy,80,2013-07-01 01:54:00
10:54 PM,66.9,61.0,81,29.91,10.0,NE,3.5,-,N/A,,Mostly Cloudy,50,2013-07-01 02:54:00
11:54 PM,66.9,62.1,84,29.92,10.0,NNE,4.6,-,N/A,,Overcast,20,2013-07-01 03:54:00